STARLINK-5744, 55601

Orbit data source: Space-Track

STARLINK-5744, 55601 is a payload satellite owned by SpaceX/Seattle (US) in LEO that was launched on Sun, 12 Feb 2023 UTC via an FALCON 9 launch vehicle from the Air Force Eastern Test Range (AFETR). Payload-class satellites include a variety of spacecraft equipped with specific instruments for various scientific and technological missions. These include communications satellites like Starlink; space stations such as the ISS; scientific satellites like the Hubble; Earth observation satellites from companies like Planet Labs, Umbra, and HawkEye 360; GPS; miniature CubeSats for education and research; and military/defense satellites.

Loading next visibility...
Identifier
55601, 2023-020AJ
Orbit
LEO
Country
Flag of USUS
Related business
Manufacturer
SpaceX/Seattle
Mission
Operational Commercial Communications
Bus & Motor
STARLINK, Unknown motor
Mass
305 kg wet, ~290 kg dry
Launch date (UTC)
2023-02-12 (3 years ago)
Launch vehicle
FALCON 9
Launch site
Air Force Eastern Test Range (AFETR)
Object type
Payload
Rocket body
Debris
Shape & HBR
Box + 1 Pan, 4.4 m
Radar Cross Section
13.562 m², Large (>1 m²)

Expand to show TLE details & history
Last TLE update: 2 days ago

TLE from 2 days ago
0 STARLINK-5744
1 55601U 23020AJ  25259.31203155  .00000390  00000-0  43945-4 0  9998
2 55601  43.0057 231.7092 0001117 266.9539  93.1176 15.02535985142694
Epoch: 2025-09-16T07:29Z
TLE epoch observation values (Epoch: 2025-09-16T07:29:19.525Z)
Latitude
-0.00001°
Longitude
123.87369°
Altitude
558.9 km
Speed
7.584 km/s
True Right ascension
15h 26m 50s
True Declination
0° 00' 00"
Sunlit
Object was in daylight at epoch
Visualization orbit readout
Latitude
Unknown
Longitude
Unknown
Altitude
Unknown
Speed
Unknown
Apparent Right ascension
Unknown
Apparent Declination
Unknown
Sunlit
N/A
Visualization observer readout
Local Sidereal Time
14:07:18
Azimuth
Unknown
Elevation
Unknown
Doppler factor
Unknown
Orbital elements
Apogee altitude
561.778 km
Perigee altitude
560.227 km
Semi-major axis
6,939.14 km
Eccentricity
0.00011
Inclination
43.0057°
RAAN
231.7092°
Arg. of periapsis
266.9539°
True anomaly
93.13038°
Mean anomaly
93.1176°
Eccentric anomaly
93.12399°
Mean motion
3.75478 °/min
Orbital period
95.88 mins
BSTAR
0.000043945
Loading maneuver chart data...
Computing Atmospheric mass density...
Loading historical data...
Loading historical data...
Loading historical data...
Loading historical data...
Loading historical data...
Loading historical data...
Loading historical data...

Documentation

Showing up to 5 results
|